Change the Weather History Date:

Saturday, February 2, 2013

  Actual Average Record
Temperature  
Mean Temperature 37 °F 29 °F  
Max Temperature 53 °F 41 °F 66 °F (2000)
Min Temperature 21 °F 17 °F -18 °F (1989)
Degree Days  
Heating Degree Days 28    
Month to date heating degree days 55  
Cooling Degree Days 0    
Month to date cooling degree days 0  
Moisture  
Dew Point 20 °F    
Average Humidity 56    
Maximum Humidity 88    
Minimum Humidity 24    
Precipitation  
Precipitation 0.00 in 0.01 in 0.16 in (2012)
Month to date precipitation T 0.03  
Year to date precipitation 0.03 0.33  
Sea Level Pressure  
Sea Level Pressure 30.30 in    
Wind  
Wind Speed 9 mph (West)    
Max Wind Speed 20 mph    
Max Gust Speed 29 mph    
Visibility 10 miles    
Events      
T = Trace of Precipitation, MM = Missing Value Source: NWS Daily Summary

Daily Weather History Graph

Daily Weather History Graph

Search for Another Location

Airport or City:

Trip Planner

Search our weather history database for the weather conditions in past years. The results will help you decide how hot, cold, wet, or windy it might be!

Date:

Astronomy

Feb. 02, 2013 Rise Set
Actual Time 7:00 AM MST 5:13 PM MST
Civil Twilight 6:31 AM MST 5:41 PM MST
Nautical Twilight 5:59 AM MST 6:14 PM MST
Astronomical Twilight 5:27 AM MST 6:46 PM MST
Moon No Moon Rise 10:11 AM MST (2/2)
Length of Visible Light 11h 10m
Length of Day
10h 12m
Waning Gibbous, 59% of the Moon is Illuminated
Feb 2
Waning Gibbous
Feb 3
Last Quarter
Feb 10
New
Feb 17
First Quarter
Feb 25
Full

Hourly Weather History & Observations

Time (MST) Temp. Windchill Dew Point Humidity Pressure Visibility Wind Dir Wind Speed Gust Speed Precip Events Conditions
12:53 AM 28.9 °F 19.2 °F 24.1 °F 82% 30.21 in 10.0 mi NNW 11.5 mph - N/A   Mostly Cloudy
2:53 AM 25.0 °F 14.8 °F 21.9 °F 88% 30.27 in 10.0 mi West 10.4 mph - N/A   Partly Cloudy
3:53 AM 23.0 °F 11.7 °F 19.9 °F 88% 30.31 in 10.0 mi West 11.5 mph - N/A   Clear
4:53 AM 24.1 °F 13.1 °F 19.9 °F 84% 30.32 in 10.0 mi West 11.5 mph - N/A   Clear
5:53 AM 27.0 °F 16.1 °F 19.9 °F 75% 30.31 in 10.0 mi WNW 12.7 mph - N/A   Clear
6:53 AM 25.0 °F 14.2 °F 18.0 °F 75% 30.33 in 10.0 mi NNW 11.5 mph - N/A   Clear
7:53 AM 27.0 °F 16.1 °F 19.9 °F 75% 30.35 in 10.0 mi WNW 12.7 mph - N/A   Clear
8:53 AM 33.1 °F 26.9 °F 21.9 °F 64% 30.34 in 10.0 mi WNW 6.9 mph - N/A   Clear
9:53 AM 37.0 °F 32.4 °F 23.0 °F 57% 30.33 in 10.0 mi West 5.8 mph - N/A   Clear
10:53 AM 39.9 °F 35.8 °F 21.0 °F 47% 30.32 in 10.0 mi WSW 5.8 mph - N/A   Clear
11:53 AM 44.1 °F 40.8 °F 19.0 °F 37% 30.27 in 10.0 mi SSW 5.8 mph - N/A   Clear
12:53 PM 50.0 °F - 18.0 °F 28% 30.23 in 10.0 mi SW 10.4 mph 19.6 mph N/A   Clear
1:53 PM 52.0 °F - 16.0 °F 24% 30.21 in 10.0 mi West 16.1 mph - N/A   Clear
2:53 PM 52.0 °F - 16.0 °F 24% 30.24 in 10.0 mi North 13.8 mph - N/A   Clear
3:53 PM 48.9 °F - 19.0 °F 31% 30.27 in 10.0 mi NNW 12.7 mph - N/A   Clear
4:53 PM 43.0 °F 39.5 °F 21.9 °F 43% 30.31 in 10.0 mi NNE 5.8 mph - N/A   Clear
5:53 PM 41.0 °F - 21.0 °F 45% 30.32 in 10.0 mi Calm Calm - N/A   Clear
6:53 PM 34.0 °F - 19.9 °F 56% 30.36 in 10.0 mi Calm Calm - N/A   Clear
7:53 PM 30.9 °F 24.3 °F 19.9 °F 64% 30.38 in 10.0 mi SSW 6.9 mph - N/A   Clear
8:53 PM 32.0 °F 28.7 °F 19.0 °F 59% 30.35 in 10.0 mi SSW 3.5 mph - N/A   Clear
9:53 PM 33.1 °F - 18.0 °F 54% 30.34 in 10.0 mi Calm Calm - N/A   Clear
10:53 PM 35.1 °F - 17.1 °F 48% 30.31 in 10.0 mi Calm Calm - N/A   Clear
11:53 PM 30.0 °F 25.2 °F 16.0 °F 56% 30.30 in 10.0 mi South 4.6 mph - N/A   Clear